CES6924 ZBTJ-ZLXY

Flight info

Callsign CES6924
Flight time 1h 5m
Altitude 34100
Route PEGSO1W PEGSO B215 GODON W43 SAVPA W696 MENED W276 LOVRA LOVRA2X
Aircraft A320/M-SDE3FGHIRWY/LB1

Departure

Time 2026-05-06 01:01
Airport Tianjin Binhai International Airport (ZBTJ)

Arrival

Time 2026-05-06 02:07
Airport Xi'an Xianyang International Airport (ZLXY)
Time Latitude Longitude Altitude Speed Heading
2026-05-06 00:30 39.12438 117.35757 19 ft 0 kts 46°
2026-05-06 00:50 39.12436 117.35754 19 ft 3 kts 46°
2026-05-06 00:50 39.12418 117.35729 21 ft 4 kts 47°
2026-05-06 00:50 39.12400 117.35703 22 ft 4 kts 48°
2026-05-06 00:50 39.12382 117.35677 20 ft 4 kts 52°
2026-05-06 00:51 39.12367 117.35649 20 ft 4 kts 58°
2026-05-06 00:51 39.12361 117.35638 21 ft 1 kts 58°
2026-05-06 00:53 39.12366 117.35638 20 ft 3 kts 13°
2026-05-06 00:54 39.12362 117.35565 21 ft 18 kts 248°
2026-05-06 00:54 39.12288 117.35367 19 ft 27 kts 244°
2026-05-06 00:54 39.12222 117.35149 19 ft 18 kts 277°
2026-05-06 00:54 39.12284 117.35089 21 ft 10 kts 340°
2026-05-06 00:55 39.12345 117.35060 20 ft 9 kts 339°
2026-05-06 00:55 39.12397 117.35030 19 ft 9 kts 333°
2026-05-06 00:55 39.12446 117.34998 20 ft 7 kts 333°
2026-05-06 00:55 39.12488 117.34970 19 ft 6 kts 333°
2026-05-06 00:56 39.12523 117.34947 19 ft 5 kts 333°
2026-05-06 00:56 39.12590 117.34903 20 ft 25 kts 333°
2026-05-06 00:56 39.12772 117.34794 21 ft 30 kts 335°
2026-05-06 00:56 39.12962 117.34677 21 ft 31 kts 334°
2026-05-06 00:57 39.13157 117.34558 19 ft 32 kts 334°
2026-05-06 00:57 39.13357 117.34434 19 ft 32 kts 335°
2026-05-06 00:57 39.13562 117.34310 19 ft 33 kts 334°
2026-05-06 00:57 39.13768 117.34179 19 ft 33 kts 333°
2026-05-06 00:58 39.13981 117.34055 19 ft 34 kts 337°
2026-05-06 00:58 39.14145 117.33930 19 ft 18 kts 282°
2026-05-06 00:58 39.14108 117.33779 19 ft 19 kts 251°
2026-05-06 00:58 39.14031 117.33653 19 ft 17 kts 189°
2026-05-06 00:59 39.13920 117.33706 20 ft 18 kts 153°
2026-05-06 00:59 39.13802 117.33781 20 ft 19 kts 156°
2026-05-06 00:59 39.13680 117.33852 22 ft 20 kts 154°
2026-05-06 00:59 39.13652 117.33870 21 ft 0 kts 153°
2026-05-06 01:00 39.13647 117.33874 21 ft 6 kts 153°
2026-05-06 01:00 39.13374 117.34040 18 ft 80 kts 154°
2026-05-06 01:00 39.12685 117.34460 20 ft 136 kts 156°
2026-05-06 01:00 39.11713 117.35082 24 ft 175 kts 154°
2026-05-06 01:01 39.10516 117.35798 140 ft 203 kts 156°
2026-05-06 01:01 39.09216 117.36592 449 ft 219 kts 156°
2026-05-06 01:01 39.07729 117.37502 570 ft 246 kts 158°
2026-05-06 01:01 39.06208 117.38441 1123 ft 245 kts 158°
2026-05-06 01:02 39.04683 117.39383 1058 ft 240 kts 159°
2026-05-06 01:02 39.03184 117.40310 1128 ft 240 kts 159°
2026-05-06 01:02 39.01655 117.41250 2048 ft 242 kts 160°
2026-05-06 01:02 39.00134 117.42190 3030 ft 244 kts 160°
2026-05-06 01:03 38.98656 117.43256 3947 ft 252 kts 146°
2026-05-06 01:03 38.97519 117.45011 4897 ft 263 kts 121°
2026-05-06 01:03 38.97018 117.47244 5786 ft 272 kts 96°
2026-05-06 01:03 38.97196 117.49690 6662 ft 278 kts 83°
2026-05-06 01:04 38.97508 117.52153 7518 ft 280 kts 83°
2026-05-06 01:04 38.97823 117.54642 8354 ft 284 kts 83°
2026-05-06 01:04 38.98138 117.57164 9209 ft 288 kts 83°
2026-05-06 01:04 38.98456 117.59729 10008 ft 292 kts 82°
2026-05-06 01:05 38.98775 117.62324 10781 ft 296 kts 82°
2026-05-06 01:05 38.99067 117.64955 11541 ft 299 kts 89°
2026-05-06 01:05 38.98748 117.67568 12279 ft 297 kts 116°
2026-05-06 01:05 38.97602 117.69733 13029 ft 293 kts 142°
2026-05-06 01:06 38.95886 117.71067 13738 ft 287 kts 167°
2026-05-06 01:06 38.93930 117.71526 14341 ft 288 kts 177°
2026-05-06 01:06 38.91933 117.71847 14526 ft 289 kts 178°
2026-05-06 01:06 38.89952 117.71801 14571 ft 281 kts 199°
2026-05-06 01:07 38.87174 117.69162 14583 ft 291 kts 243°
2026-05-06 01:07 38.86538 117.66597 14583 ft 317 kts 261°
2026-05-06 01:07 38.86193 117.63723 14583 ft 343 kts 262°
2026-05-06 01:08 38.85888 117.60573 14579 ft 367 kts 268°
2026-05-06 01:08 38.86183 117.57243 14573 ft 385 kts 284°
2026-05-06 01:08 38.87076 117.53972 14568 ft 390 kts 289°
2026-05-06 01:08 38.88017 117.50705 14564 ft 391 kts 289°
2026-05-06 01:09 38.88958 117.47425 14564 ft 391 kts 289°
2026-05-06 01:09 38.89893 117.44147 14565 ft 391 kts 289°
2026-05-06 01:09 38.90800 117.40853 14548 ft 391 kts 285°
2026-05-06 01:09 38.91281 117.37433 14560 ft 389 kts 273°
2026-05-06 01:10 38.91188 117.33966 14554 ft 389 kts 262°
2026-05-06 01:10 38.90534 117.30597 14550 ft 390 kts 250°
2026-05-06 01:10 38.89380 117.27443 14550 ft 391 kts 243°
2026-05-06 01:10 38.88114 117.24348 14563 ft 391 kts 243°
2026-05-06 01:11 38.86850 117.21262 14561 ft 391 kts 243°
2026-05-06 01:11 38.85582 117.18168 14562 ft 392 kts 243°
2026-05-06 01:11 38.84312 117.15076 14562 ft 392 kts 243°
2026-05-06 01:11 38.83036 117.11975 14560 ft 392 kts 243°
2026-05-06 01:12 38.81764 117.08882 14562 ft 392 kts 243°
2026-05-06 01:12 38.80491 117.05789 14562 ft 392 kts 243°
2026-05-06 01:12 38.79216 117.02701 14562 ft 392 kts 243°
2026-05-06 01:12 38.77935 116.99598 14564 ft 393 kts 243°
2026-05-06 01:13 38.76655 116.96498 14562 ft 393 kts 243°
2026-05-06 01:13 38.75393 116.93440 14560 ft 394 kts 243°
2026-05-06 01:13 38.74109 116.90344 14561 ft 394 kts 243°
2026-05-06 01:13 38.72809 116.87250 14562 ft 394 kts 243°
2026-05-06 01:14 38.70184 116.81078 14556 ft 395 kts 243°
2026-05-06 01:14 38.68863 116.77989 14554 ft 395 kts 242°
2026-05-06 01:14 38.67544 116.74903 14553 ft 395 kts 243°
2026-05-06 01:15 38.66230 116.71819 14557 ft 395 kts 243°
2026-05-06 01:15 38.65037 116.68646 14557 ft 395 kts 250°
2026-05-06 01:15 38.64315 116.65265 14554 ft 394 kts 261°
2026-05-06 01:15 38.64105 116.61786 14555 ft 394 kts 271°
2026-05-06 01:16 38.64213 116.58286 14560 ft 394 kts 272°
2026-05-06 01:16 38.64318 116.54786 14554 ft 394 kts 272°
2026-05-06 01:16 38.64417 116.51281 14552 ft 394 kts 272°
2026-05-06 01:16 38.64512 116.47778 14553 ft 394 kts 272°
2026-05-06 01:17 38.64605 116.44278 14553 ft 394 kts 272°
2026-05-06 01:17 38.64698 116.40770 14552 ft 394 kts 272°
2026-05-06 01:17 38.64790 116.37307 14552 ft 394 kts 272°
2026-05-06 01:17 38.64883 116.33798 14553 ft 394 kts 272°
2026-05-06 01:18 38.64976 116.30292 14550 ft 394 kts 272°
2026-05-06 01:18 38.65069 116.26787 14552 ft 394 kts 272°
2026-05-06 01:18 38.65162 116.23277 14552 ft 394 kts 272°
2026-05-06 01:18 38.65251 116.19769 14550 ft 394 kts 271°
2026-05-06 01:19 38.65335 116.16259 14550 ft 394 kts 271°
2026-05-06 01:19 38.65459 116.12762 14548 ft 394 kts 276°
2026-05-06 01:19 38.66007 116.09323 14549 ft 395 kts 287°
2026-05-06 01:19 38.67083 116.06064 14863 ft 401 kts 297°
2026-05-06 01:20 38.68557 116.03033 15524 ft 401 kts 301°
2026-05-06 01:20 38.70062 116.00015 16178 ft 402 kts 301°
2026-05-06 01:20 38.71543 115.97023 16799 ft 403 kts 301°
2026-05-06 01:20 38.73045 115.93975 17405 ft 404 kts 301°
2026-05-06 01:21 38.74545 115.90929 18005 ft 405 kts 301°
2026-05-06 01:21 38.76052 115.87877 18519 ft 406 kts 301°
2026-05-06 01:21 38.77569 115.84813 18996 ft 408 kts 301°
2026-05-06 01:21 38.79092 115.81736 19468 ft 410 kts 301°
2026-05-06 01:22 38.79494 115.80924 19578 ft 410 kts 301°
2026-05-06 01:22 38.80766 115.78368 19955 ft 412 kts 301°
2026-05-06 01:22 38.82305 115.75268 20386 ft 414 kts 300°
2026-05-06 01:22 38.83853 115.72137 20813 ft 416 kts 300°
2026-05-06 01:23 38.85392 115.69016 21224 ft 418 kts 300°
2026-05-06 01:23 38.86849 115.66057 21605 ft 420 kts 300°
2026-05-06 01:23 38.88413 115.62877 22005 ft 422 kts 300°
2026-05-06 01:23 38.89970 115.59685 22391 ft 424 kts 298°
2026-05-06 01:24 38.91239 115.56281 22763 ft 424 kts 289°
2026-05-06 01:24 38.92013 115.52628 23121 ft 425 kts 279°
2026-05-06 01:24 38.92275 115.48850 23444 ft 427 kts 270°
2026-05-06 01:24 38.92021 115.45101 23739 ft 429 kts 261°
2026-05-06 01:25 38.89789 115.37231 24416 ft 435 kts 248°
2026-05-06 01:25 38.84830 115.23054 25811 ft 434 kts 248°
2026-05-06 01:25 38.79908 115.09069 27667 ft 425 kts 248°
2026-05-06 01:25 38.75058 114.95434 29542 ft 417 kts 248°
2026-05-06 01:26 38.70293 114.82024 31140 ft 409 kts 248°
2026-05-06 01:26 38.65586 114.68882 32783 ft 401 kts 248°
2026-05-06 01:26 38.60945 114.55997 33859 ft 403 kts 248°
2026-05-06 01:26 38.56224 114.42972 33806 ft 402 kts 248°
2026-05-06 01:27 38.46786 114.17013 33838 ft 405 kts 247°
2026-05-06 01:27 38.37238 113.90979 33848 ft 405 kts 247°
2026-05-06 01:28 38.27595 113.65228 33844 ft 407 kts 247°
2026-05-06 01:28 38.17740 113.39263 33871 ft 407 kts 247°
2026-05-06 01:29 38.08036 113.13304 33898 ft 407 kts 248°
2026-05-06 01:29 37.98311 112.87466 33929 ft 404 kts 248°
2026-05-06 01:30 37.88552 112.61766 33949 ft 404 kts 248°
2026-05-06 01:30 37.78102 112.36822 33930 ft 403 kts 245°
2026-05-06 01:31 37.69782 112.15176 33921 ft 404 kts 247°
2026-05-06 01:31 37.67337 112.08797 33927 ft 404 kts 246°
2026-05-06 01:32 37.64881 112.02423 33933 ft 404 kts 246°
2026-05-06 01:32 37.62410 111.96051 33936 ft 404 kts 246°
2026-05-06 01:33 37.59946 111.89678 33938 ft 404 kts 246°
2026-05-06 01:33 37.57481 111.83304 33944 ft 404 kts 246°
2026-05-06 01:34 37.55011 111.76943 33926 ft 404 kts 246°
2026-05-06 01:34 37.52537 111.70585 33925 ft 404 kts 246°
2026-05-06 01:35 37.49429 111.64730 33924 ft 411 kts 230°
2026-05-06 01:35 37.45350 111.59657 33912 ft 412 kts 229°
2026-05-06 01:36 37.41248 111.54597 33910 ft 413 kts 229°
2026-05-06 01:36 37.37141 111.49517 33904 ft 414 kts 229°
2026-05-06 01:37 37.33038 111.44433 33904 ft 414 kts 229°
2026-05-06 01:37 37.28925 111.39343 33904 ft 415 kts 229°
2026-05-06 01:38 37.24805 111.34253 33899 ft 416 kts 229°
2026-05-06 01:38 37.20706 111.29196 33894 ft 416 kts 229°
2026-05-06 01:39 37.16576 111.24117 33897 ft 416 kts 229°
2026-05-06 01:39 37.12432 111.19029 33900 ft 416 kts 229°
2026-05-06 01:40 37.08292 111.13962 33903 ft 416 kts 229°
2026-05-06 01:40 37.04156 111.08912 33906 ft 415 kts 229°
2026-05-06 01:41 37.00012 111.03849 33903 ft 415 kts 229°
2026-05-06 01:41 36.95877 110.98806 33900 ft 415 kts 229°
2026-05-06 01:42 36.91901 110.93964 33899 ft 415 kts 229°
2026-05-06 01:42 36.87758 110.88915 33899 ft 416 kts 229°
2026-05-06 01:43 36.84077 110.83437 33894 ft 410 kts 239°
2026-05-06 01:43 36.80931 110.77481 33890 ft 410 kts 239°
2026-05-06 01:44 36.77774 110.71548 33883 ft 411 kts 239°
2026-05-06 01:44 36.74627 110.65649 33883 ft 412 kts 239°
2026-05-06 01:45 36.71456 110.59702 33883 ft 412 kts 239°
2026-05-06 01:45 36.68279 110.53765 33883 ft 412 kts 239°
2026-05-06 01:46 36.65098 110.47824 33888 ft 412 kts 239°
2026-05-06 01:46 36.61917 110.41884 33887 ft 412 kts 239°
2026-05-06 01:47 36.58736 110.35954 33882 ft 412 kts 239°
2026-05-06 01:47 36.50226 110.20160 33881 ft 414 kts 238°
2026-05-06 01:48 36.37331 109.96368 33894 ft 415 kts 239°
2026-05-06 01:48 36.24390 109.72666 33916 ft 414 kts 238°
2026-05-06 01:49 36.11504 109.49216 33922 ft 411 kts 238°
2026-05-06 01:49 35.98658 109.26010 33914 ft 412 kts 238°
2026-05-06 01:50 35.89755 109.17084 33952 ft 430 kts 210°
2026-05-06 01:50 35.78585 109.11542 33945 ft 436 kts 204°
2026-05-06 01:50 35.55478 109.02319 33951 ft 435 kts 204°
2026-05-06 01:51 35.32450 108.93160 33963 ft 434 kts 204°
2026-05-06 01:51 35.26534 108.90819 33989 ft 433 kts 204°
2026-05-06 01:52 35.23660 108.89683 33764 ft 433 kts 204°
2026-05-06 01:52 35.20785 108.88544 32681 ft 438 kts 204°
2026-05-06 01:52 35.17866 108.87388 31663 ft 442 kts 203°
2026-05-06 01:52 35.14928 108.86228 30708 ft 445 kts 203°
2026-05-06 01:53 35.11970 108.85062 29600 ft 449 kts 202°
2026-05-06 01:53 35.08980 108.83880 28330 ft 454 kts 202°
2026-05-06 01:53 35.05962 108.82686 27104 ft 458 kts 202°
2026-05-06 01:53 35.02927 108.81488 25920 ft 460 kts 201°
2026-05-06 01:54 34.99872 108.80287 24769 ft 461 kts 201°
2026-05-06 01:54 34.96858 108.79106 23691 ft 461 kts 201°
2026-05-06 01:54 34.93810 108.77913 22494 ft 462 kts 200°
2026-05-06 01:54 34.90766 108.76722 21676 ft 454 kts 200°
2026-05-06 01:55 34.88027 108.75652 20906 ft 448 kts 199°
2026-05-06 01:55 34.85077 108.74499 20073 ft 442 kts 199°
2026-05-06 01:55 34.82158 108.73356 19238 ft 438 kts 198°
2026-05-06 01:55 34.79265 108.72224 18475 ft 433 kts 198°
2026-05-06 01:56 34.76422 108.71077 17643 ft 429 kts 200°
2026-05-06 01:56 34.73779 108.69476 17244 ft 417 kts 209°
2026-05-06 01:56 34.71321 108.67757 17097 ft 398 kts 208°
2026-05-06 01:56 34.68956 108.66133 16912 ft 382 kts 208°
2026-05-06 01:57 34.66707 108.64603 16751 ft 368 kts 208°
2026-05-06 01:57 34.65216 108.63592 16638 ft 360 kts 208°
2026-05-06 01:57 34.62387 108.61668 16428 ft 344 kts 208°
2026-05-06 01:57 34.60962 108.60799 16325 ft 335 kts 199°
2026-05-06 01:58 34.58712 108.60484 16171 ft 323 kts 172°
2026-05-06 01:58 34.56622 108.61453 15615 ft 330 kts 146°
2026-05-06 01:58 34.54346 108.63980 14784 ft 340 kts 131°
2026-05-06 01:58 34.53510 108.65645 14380 ft 347 kts 113°
2026-05-06 01:59 34.53148 108.68554 13793 ft 357 kts 86°
2026-05-06 01:59 34.53890 108.71391 13229 ft 363 kts 62°
2026-05-06 01:59 34.55408 108.73882 12647 ft 365 kts 49°
2026-05-06 01:59 34.57230 108.76038 12162 ft 364 kts 42°
2026-05-06 02:00 34.59686 108.78675 11818 ft 352 kts 42°
2026-05-06 02:00 34.60879 108.80009 11492 ft 352 kts 44°
2026-05-06 02:00 34.62618 108.82088 11001 ft 350 kts 46°
2026-05-06 02:00 34.64282 108.84236 10523 ft 348 kts 48°
2026-05-06 02:01 34.65898 108.86438 10007 ft 347 kts 49°
2026-05-06 02:01 34.67477 108.88647 9462 ft 346 kts 49°
2026-05-06 02:01 34.68928 108.90952 8929 ft 343 kts 62°
2026-05-06 02:01 34.69510 108.93720 8422 ft 340 kts 90°
2026-05-06 02:02 34.68960 108.96461 7979 ft 335 kts 119°
2026-05-06 02:02 34.67459 108.98578 7537 ft 330 kts 142°
2026-05-06 02:02 34.65523 109.00049 7021 ft 329 kts 161°
2026-05-06 02:02 34.63293 109.00364 6597 ft 323 kts 189°
2026-05-06 02:03 34.61156 108.99614 6200 ft 317 kts 203°
2026-05-06 02:03 34.59236 108.98337 5736 ft 314 kts 219°
2026-05-06 02:03 34.57647 108.96537 5280 ft 312 kts 226°
2026-05-06 02:03 34.56163 108.94640 4851 ft 309 kts 229°
2026-05-06 02:04 34.54763 108.92687 4545 ft 305 kts 231°
2026-05-06 02:04 34.53396 108.90731 4174 ft 303 kts 229°
2026-05-06 02:04 34.52012 108.88808 3778 ft 300 kts 230°
2026-05-06 02:04 34.50643 108.86918 3377 ft 296 kts 231°
2026-05-06 02:05 34.49336 108.85114 3027 ft 275 kts 230°
2026-05-06 02:05 34.48111 108.83418 2666 ft 260 kts 231°
2026-05-06 02:05 34.46982 108.81857 2341 ft 232 kts 231°
2026-05-06 02:05 34.45971 108.80461 2062 ft 210 kts 232°
2026-05-06 02:06 34.45043 108.79178 1789 ft 194 kts 230°
2026-05-06 02:06 34.44201 108.78014 1572 ft 174 kts 231°
2026-05-06 02:06 34.43508 108.77047 1554 ft 135 kts 228°
2026-05-06 02:06 34.42995 108.76344 1558 ft 64 kts 229°
2026-05-06 02:07 34.42931 108.76255 1559 ft 20 kts 229°
2026-05-06 02:07 34.42924 108.76245 1559 ft 0 kts 229°
2026-05-06 02:07 34.42910 108.76203 1559 ft 13 kts 278°
2026-05-06 02:07 34.42939 108.76088 1559 ft 15 kts 260°
2026-05-06 02:08 34.43003 108.75996 1559 ft 16 kts 321°
2026-05-06 02:08 34.43090 108.75906 1559 ft 17 kts 330°
2026-05-06 02:08 34.43178 108.75951 1559 ft 15 kts 50°
2026-05-06 02:08 34.43241 108.76041 1558 ft 14 kts 48°
2026-05-06 02:09 34.43301 108.76124 1558 ft 13 kts 49°
2026-05-06 02:09 34.43356 108.76203 1558 ft 12 kts 51°
2026-05-06 02:09 34.43406 108.76278 1557 ft 11 kts 51°
2026-05-06 02:09 34.43453 108.76347 1557 ft 10 kts 50°
2026-05-06 02:10 34.43499 108.76401 1557 ft 7 kts
2026-05-06 02:10 34.43538 108.76370 1557 ft 7 kts 320°
2026-05-06 02:10 34.43575 108.76329 1558 ft 7 kts 331°
2026-05-06 02:10 34.43616 108.76348 1558 ft 6 kts 34°
2026-05-06 02:11 34.43636 108.76373 1557 ft 0 kts 50°